星链-5571 (STARLINK-5571 )

导读 | 豆包AI

STARLINK-5571是美国SpaceX公司星链(Starlink)星座的组网卫星,于2023年1月26日发射升空,服务于全球卫星互联网项目。它依托星链技术升级,搭载星间激光链路,可实现25Gbps高速互联,配合地面终端能提供低时延宽带服务,助力偏远地区网络覆盖,支撑全球高速互联网接入布局。

基本信息
目录编号:
55380
目录名称:
STARLINK-5571
国际标识:
2023-013BB
轨道中心:
EARTH
卫星名称:
星链-5571
卫星全名:
星链-5571 (STARLINK-5571 )
卫星状态:
在轨 (已飞行1144 天)
发射日期:
2023-01-26 UTC
国别 :
美国 (US)
星等 :
--
轨道信息
数据来源 国际轨道数据 AOE轨道数据
星历时间 2026-03-14T21:09:49+0800
1天前
查看轨道信息
2026-03-14T11:00:00+0800
1天前
查看轨道信息
半长轴 6934.589km 6934.56km
偏心率 0.0001059 0.0000232
轨道倾角 43.001° 43.001°
近地点辐角 216.289° 225.046°
升交点赤经 260.632° 262.937°
平近点角 143.788° 0.432°
近地点 555.717km 556.262km
远地点 557.187km 556.584km
周期 95.784分钟 95.783分钟
每日圈数 15.033903 15.033995
详细信息
固有亮度:
5
最大亮度:
2.5
卫星平台:
Starlink v1.5
覆盖范围:
全球
运营商:
太空探索技术公司
运营商所在国:
美国
制造商(研发单位):
太空探索技术公司
制造商所在国:
美国
使用方式:
暂无
卫星简介
星链(Starlink)计划是由太空探索技术公司(SpaceX)提出的一个巨型低轨卫星互联网星座项目,计划在2019年至2024年间在太空搭建由约1.2万颗卫星组成的“星链”网络,其中1584颗将部署在地球上空550千米处的近地轨道,并从2020年开始工作。该卫星仍在工作。
2D轨道图
3D轨道图
轨道高度分析图
轨道倾角分析图
轨道综合分析图
查看轨道综合分析图